This demonstration page uses our WeatherBlox Daily Observations layout. Learn more.

Left ArrowRight Arrow

41.86663, -103.66717

Hourly Observations for March 10, 2020

Temp ( °F °C ) Dew Point ( °F °C ) Humidity (%) Winds ( mph kmh ) Pressure ( in mb ) Visibility ( mi km ) Precip ( " mm )
12:53 am 00:53 Mostly Cloudy 40 4.4 35 1.7 83 83 E 5 7 30.10 1019 10 16 N/A
1:53 am 01:53 Cloudy 40 4.4 36 2.2 86 86 E 5 7 30.11 1020 10 16 N/A
2:53 am 02:53 Cloudy 41 5 36 2.2 82 82 E 7 11 30.09 1019 10 16 0.00 0.00
3:53 am 03:53 Cloudy with Light Rain 41 5 37 2.8 86 86 SE 6 9 30.08 1019 10 16 0.00 0.00
4:53 am 04:53 Cloudy 40 4.4 37 2.8 89 89 SSE 6 9 30.08 1019 10 16 0.00 0.00
5:53 am 05:53 Mostly Cloudy 36 2.2 34 1.1 93 93 E 6 9 30.08 1019 10 16 N/A
6:53 am 06:53 Clear 33 0.6 32 undefined 96 96 E 5 7 30.10 1019 10 16 N/A
7:53 am 07:53 Sunny 34 1.1 32 undefined 92 92 E 3 6 30.11 1020 9 14 N/A
8:53 am 08:53 Sunny 39 3.9 36 2.2 89 89 SE 3 6 30.11 1020 10 16 N/A
9:53 am 09:53 Sunny 46 7.8 37 2.8 71 71 N N/A 30.09 1019 10 16 N/A
10:53 am 10:53 Sunny 52 11.1 37 2.8 57 57 WSW 3 6 30.07 1018 10 16 N/A
11:53 am 11:53 Sunny 58 14.4 32 undefined 38 38 W 18 30 30.03 1017 10 16 N/A
12:53 pm 12:53 Sunny 60 15.6 31 -0.6 33 33 WSW 20 31 30.01 1016 10 16 N/A
1:53 pm 13:53 Mostly Cloudy 60 15.6 27 -2.8 28 28 WNW 23 37 29.99 1016 10 16 N/A
2:53 pm 14:53 Mostly Sunny 61 16.1 26 -3.3 26 26 WNW 22 35 29.96 1015 10 16 N/A
3:53 pm 15:53 Mostly Cloudy 63 17.2 23 -5 22 22 WNW 29 46 29.96 1015 10 16 N/A
4:53 pm 16:53 Mostly Cloudy 60 15.6 30 -1.1 32 32 NNW 20 31 30.00 1016 10 16 N/A
5:53 pm 17:53 Mostly Cloudy 56 13.3 31 -0.6 39 39 N 13 20 30.04 1017 10 16 N/A
6:53 pm 18:53 Sunny 52 11.1 29 -1.7 41 41 NNW 3 6 30.06 1018 10 16 N/A
7:53 pm 19:53 Clear 47 8.3 24 -4.4 41 41 W 8 13 30.08 1019 10 16 N/A
8:53 pm 20:53 Clear 46 7.8 22 -5.6 38 38 WNW 10 17 30.09 1019 10 16 N/A
9:53 pm 21:53 Clear 35 1.7 22 -5.6 59 59 WNW 7 11 30.09 1019 10 16 N/A
10:53 pm 22:53 Clear 35 1.7 22 -5.6 59 59 WNW 3 6 30.07 1018 10 16 N/A
11:53 pm 23:53 Clear 32 undefined 21 -6.1 64 64 NW 3 6 30.04 1017 10 16 N/A

Powered by AerisWeather